Location: Unspecified
(40.7945°N, 0.0000°E)
Time: 03:03:26
(UTC+00:00)

Altair - Pass Details

Date: 25 January 2021
Orbit: 1501 x 1682 km, 47.2° (Epoch: 01 March)

Event Time Altitude Azimuth Distance (km) Brightness Sun altitude
Rises 12:53:23 0° 294° (WNW) 4,930 10.0 29.6°
Reaches altitude 10° 12:57:25 10° 281° (W) 3,924 9.7 29.5°
Maximum altitude 13:04:40 23° 234° (SW) 2,960 10.1 29.2°
Drops below altitude 10° 13:11:48 10° 186° (S) 3,824 11.2 28.8°
Sets 13:15:42 0° 173° (S) 4,776 11.1 28.6°
